Location: ?????
(55.8833°N, 37.6500°E)
Time: 23:20:08
(UTC+00:00)

CZ-2C R/B - Pass Details

Date: 27 February 2020
Orbit: 703 x 909 km, 98.1° (Epoch: 09 April)

Event Time Altitude Azimuth Distance (km) Brightness Sun altitude
Rises 15:58:22 0° 137° (SE) 3,521 6.0 -9.2°
Reaches altitude 10° 16:00:55 10° 130° (SE) 2,571 5.3 -9.5°
Maximum altitude 16:06:16 42° 62° (ENE) 1,242 3.7 -10.3°
Drops below altitude 10° 16:11:27 10° 354° (N) 2,490 5.7 -11.0°
Sets 16:13:52 0° 348° (NNW) 3,399 6.5 -11.4°
